Weather History for KTDZ - May, 2013

Change the Weather History Date:

Thursday, May 16, 2013

  Actual Average (KTOL) Record (KTOL)
Temperature  
Mean Temperature 70 °F 60 °F  
Max Temperature 84 °F 71 °F 93 °F (1991)
Min Temperature 55 °F 48 °F 32 °F (1967)
Degree Days  
Heating Degree Days 0 7  
Month to date heating degree days 136  
Since 1 July heating degree days 6038  
Cooling Degree Days 4 1  
Month to date cooling degree days 13  
Year to date cooling degree days 21  
Growing Degree Days 20 (Base 50)    
Moisture  
Dew Point 44 °F    
Average Humidity 43    
Maximum Humidity 67    
Minimum Humidity 22    
Precipitation  
Precipitation 0.00 in 0.12 in - ()
Month to date precipitation 1.77  
Year to date precipitation 11.56  
Snow  
Snow 0.00 in 0.00 in - ()
Month to date snowfall 0.1  
Since 1 July snowfall 37.6  
Snow Depth -    
Sea Level Pressure  
Sea Level Pressure 29.89 in    
Wind  
Wind Speed 5 mph (NW)    
Max Wind Speed 13 mph    
Max Gust Speed 17 mph    
Visibility 10 miles    
Events      
T = Trace of Precipitation, MM = Missing Value Source: NWS Daily Summary

Daily Weather History Graph

Daily Weather History Graph

Search for Another Location

Airport or City:

Trip Planner

Search our weather history database for the weather conditions in past years. The results will help you decide how hot, cold, wet, or windy it might be!

Date:

Astronomy

May. 16, 2013 Rise Set
Actual Time 6:13 AM EDT 8:47 PM EDT
Civil Twilight 5:41 AM EDT 9:19 PM EDT
Nautical Twilight 5:02 AM EDT 9:59 PM EDT
Astronomical Twilight 4:17 AM EDT 10:44 PM EDT
Moon 11:47 AM EDT (5/16) 1:06 AM EDT (5/16)
Length of Visible Light 15h 37m
Length of Day
14h 34m
Waxing Crescent, 35% of the Moon is Illuminated
May 16
Waxing Crescent
May 18
First Quarter
May 25
Full
May 31
Last Quarter
Jun 8
New

Hourly Weather History & Observations

Time (EDT) Temp. Dew Point Humidity Pressure Visibility Wind Dir Wind Speed Gust Speed Precip Events Conditions
12:53 AM 61.0 °F 48.0 °F 62% 29.80 in 10.0 mi WNW 5.8 mph - N/A   Partly Cloudy
1:53 AM 63.0 °F 44.1 °F 50% 29.81 in 10.0 mi NW 9.2 mph - N/A   Clear
2:53 AM 59.0 °F 44.1 °F 58% 29.82 in 10.0 mi Calm Calm - N/A   Clear
3:53 AM 57.9 °F 44.1 °F 60% 29.82 in 10.0 mi Calm Calm - N/A   Clear
4:53 AM 55.9 °F 44.1 °F 64% 29.84 in 10.0 mi West 3.5 mph - N/A   Clear
5:53 AM 55.9 °F 45.0 °F 67% 29.85 in 10.0 mi Calm Calm - N/A   Clear
6:53 AM 55.9 °F 44.1 °F 64% 29.87 in 10.0 mi NNW 4.6 mph - N/A   Clear
7:53 AM 62.1 °F 46.0 °F 56% 29.88 in 10.0 mi West 4.6 mph - N/A   Clear
8:53 AM 68.0 °F 46.9 °F 47% 29.90 in 10.0 mi NW 6.9 mph - N/A   Clear
9:53 AM 72.0 °F 46.0 °F 40% 29.91 in 10.0 mi West 5.8 mph - N/A   Clear
10:53 AM 73.9 °F 41.0 °F 30% 29.91 in 10.0 mi NNW 4.6 mph - N/A   Clear
11:53 AM 77.0 °F 37.0 °F 24% 29.92 in 10.0 mi Variable 4.6 mph - N/A   Clear
12:53 PM 79.0 °F 39.0 °F 24% 29.91 in 10.0 mi West 6.9 mph - N/A   Clear
1:53 PM 80.1 °F 39.0 °F 23% 29.90 in 10.0 mi Variable 3.5 mph - N/A   Clear
2:53 PM 82.0 °F 39.9 °F 22% 29.90 in 10.0 mi West 11.5 mph 17.3 mph N/A   Clear
3:53 PM 82.9 °F 39.9 °F 22% 29.89 in 10.0 mi WSW 9.2 mph - N/A   Clear
4:53 PM 84.0 °F 41.0 °F 22% 29.88 in 10.0 mi SW 9.2 mph - N/A   Clear
6:53 PM 79.0 °F 45.0 °F 30% 29.88 in 10.0 mi West 4.6 mph - N/A   Partly Cloudy
7:53 PM 79.0 °F 46.0 °F 31% 29.89 in 10.0 mi Calm Calm - N/A   Scattered Clouds
8:53 PM 77.0 °F 44.1 °F 31% 29.90 in 10.0 mi NE 6.9 mph - N/A   Mostly Cloudy
9:53 PM 72.0 °F 48.0 °F 43% 29.93 in 10.0 mi NE 3.5 mph - N/A   Scattered Clouds
10:53 PM 68.0 °F 50.0 °F 52% 29.96 in 10.0 mi NE 9.2 mph - N/A   Mostly Cloudy
11:53 PM 61.0 °F 48.0 °F 62% 29.99 in 10.0 mi NNE 12.7 mph - N/A   Mostly Cloudy